Location: Baumgartsau
(48.4586°N, 14.0864°E)
Time: 12:37:40
(UTC+00:00)

BREEZE M DEB (TANK) - Pass Details

Date: 10 August 2020
Orbit: 304 x 11869 km, 49.5° (Epoch: 20 September)

Event Time Altitude Azimuth Distance (km) Brightness Sun altitude
Exits shadow 03:17:12 - 237° (WSW) 10,650 8.1 -5.8°
Reaches altitude 10° 03:21:55 10° 238° (WSW) 9,394 7.8 -5.1°
Maximum altitude 03:46:05 75° 159° (SSE) 1,770 4.9 -1.6°
Drops below altitude 10° 03:51:54 10° 75° (ENE) 2,575 7.8 -0.7°
Sets 03:53:24 0° 73° (ENE) 3,155 8.9 -0.5°
